パンスターズ彗星

C/2017 K5 ( PanSTARRS )

English version
Home page
Updated on August 19, 2019

---------------------------------------------------------------------

・ プロフィール

発見日 2017年5月27日
発見光度 22.0等
発見者 Pan-STARRS 1 telescope (Haleakala)

・ 写真集

・ 軌道要素

Epoch 2020 Mar. 12.0 TT = JDT 2458920.5                                         
T 2020 Mar. 24.18480 TT                                 Williams                
q   7.6785587            (2000.0)            P               Q                  
z  -0.0008362      Peri.  171.83755     +0.19344312     +0.16057759             
 +/-0.0000032      Node   102.37342     -0.94681187     +0.28912194             
e   1.0064205      Incl.   82.26378     -0.25715179     -0.94372843             
H                                                                               
From 43 observations 2017 May 27-2019 Aug. 1, mean residual 0".4.               

・ 光度変化

        m1 = -4.0 + 5 logΔ + 20.0 log r

---------------------------------------------------------------------

軌道要素はM.P.E.C. 2019-Q08に掲載されたものです。
光度グラフはComet for Windowsで作成したものです。

---------------------------------------------------------------------

Copyright(C) Seiichi Yoshida (comet@aerith.net). All rights reserved.